FLI7878 BIAR-EGPH

Flight info

Callsign FLI7878
Flight time 1h 50m
Altitude 37000
Route JARRI1F JARRI DCT ROSTI DCT RATSU/N0441F370 DCT BARKU DCT BRUCE/N0380F250 Q602 CLYDE DCT STIRA
Aircraft A320/M-SDE3FGHIRWY/LB1

Departure

Time 2026-05-04 17:10
Airport Akureyri International Airport (BIAR)

Arrival

Time 2026-05-04 19:01
Airport Edinburgh Airport (EGPH)
Time Latitude Longitude Altitude Speed Heading
2026-05-04 16:51 65.65444 -18.07487 19 ft 0 kts 26°
2026-05-04 17:07 65.65477 -18.07428 17 ft 13 kts 56°
2026-05-04 17:07 65.65443 -18.07163 15 ft 11 kts 182°
2026-05-04 17:07 65.65331 -18.07139 15 ft 27 kts 175°
2026-05-04 17:08 65.65095 -18.07097 19 ft 35 kts 175°
2026-05-04 17:08 65.64719 -18.07026 16 ft 25 kts 176°
2026-05-04 17:08 65.64542 -18.06991 17 ft 23 kts 173°
2026-05-04 17:09 65.64474 -18.06968 17 ft 5 kts 265°
2026-05-04 17:09 65.64508 -18.06989 19 ft 7 kts 359°
2026-05-04 17:09 65.64638 -18.07011 17 ft 49 kts 355°
2026-05-04 17:10 65.66132 -18.07291 325 ft 136 kts 353°
2026-05-04 17:10 65.68848 -18.08055 2034 ft 138 kts 348°
2026-05-04 17:11 65.69865 -18.08554 2269 ft 160 kts 346°
2026-05-04 17:11 65.71075 -18.09147 2370 ft 192 kts 346°
2026-05-04 17:11 65.74030 -18.10603 3203 ft 238 kts 346°
2026-05-04 17:12 65.75682 -18.11419 4042 ft 243 kts 347°
2026-05-04 17:12 65.78813 -18.14394 5947 ft 248 kts 320°
2026-05-04 17:13 65.80099 -18.26580 8408 ft 280 kts 251°
2026-05-04 17:14 65.75372 -18.33940 10749 ft 294 kts 172°
2026-05-04 17:14 65.73326 -18.32889 11132 ft 311 kts 163°
2026-05-04 17:14 65.68896 -18.29958 11964 ft 341 kts 163°
2026-05-04 17:15 65.66598 -18.28405 12670 ft 345 kts 163°
2026-05-04 17:15 65.61901 -18.25309 14064 ft 355 kts 164°
2026-05-04 17:16 65.57080 -18.22196 15358 ft 362 kts 165°
2026-05-04 17:16 65.49688 -18.17470 17212 ft 373 kts 165°
2026-05-04 17:17 65.47160 -18.15857 17803 ft 377 kts 166°
2026-05-04 17:17 65.39392 -18.10930 19349 ft 393 kts 167°
2026-05-04 17:18 65.36761 -18.09273 19762 ft 399 kts 168°
2026-05-04 17:18 65.31286 -18.05838 20610 ft 412 kts 169°
2026-05-04 17:19 65.25625 -18.02294 21458 ft 425 kts 170°
2026-05-04 17:19 65.20086 -17.96599 22263 ft 449 kts 150°
2026-05-04 17:20 65.15251 -17.86638 22828 ft 471 kts 137°
2026-05-04 17:20 65.10545 -17.75565 23527 ft 486 kts 137°
2026-05-04 17:20 65.08130 -17.69883 23848 ft 492 kts 137°
2026-05-04 17:21 65.03197 -17.58358 24578 ft 499 kts 137°
2026-05-04 17:21 64.98203 -17.46765 25361 ft 504 kts 137°
2026-05-04 17:22 64.95714 -17.41019 25750 ft 506 kts 137°
2026-05-04 17:22 64.93190 -17.35207 26130 ft 508 kts 138°
2026-05-04 17:23 64.85491 -17.17616 27045 ft 518 kts 138°
2026-05-04 17:23 64.82894 -17.11712 27408 ft 520 kts 138°
2026-05-04 17:23 64.77671 -16.99875 28089 ft 524 kts 138°
2026-05-04 17:24 64.75040 -16.93937 28432 ft 526 kts 139°
2026-05-04 17:24 64.67104 -16.76101 29382 ft 532 kts 139°
2026-05-04 17:25 64.64427 -16.70109 29629 ft 534 kts 139°
2026-05-04 17:25 64.59042 -16.58130 30180 ft 539 kts 139°
2026-05-04 17:26 64.53585 -16.46088 30671 ft 541 kts 139°
2026-05-04 17:26 64.45355 -16.28039 31431 ft 542 kts 139°
2026-05-04 17:27 64.39884 -16.16123 32153 ft 536 kts 140°
2026-05-04 17:27 64.34492 -16.04437 32836 ft 532 kts 140°
2026-05-04 17:28 64.29100 -15.92824 33485 ft 528 kts 140°
2026-05-04 17:29 64.21074 -15.75714 34396 ft 523 kts 141°
2026-05-04 17:29 64.13092 -15.58788 35112 ft 519 kts 140°
2026-05-04 17:30 64.05126 -15.42013 35764 ft 517 kts 140°
2026-05-04 17:31 63.99858 -15.31005 36205 ft 515 kts 140°
2026-05-04 17:31 63.91933 -15.14548 36819 ft 512 kts 140°
2026-05-04 17:32 63.86666 -15.03688 37141 ft 510 kts 140°
2026-05-04 17:33 63.76175 -14.82249 37167 ft 507 kts 140°
2026-05-04 17:34 63.65692 -14.61033 37160 ft 507 kts 141°
2026-05-04 17:35 63.52531 -14.34687 37157 ft 507 kts 141°
2026-05-04 17:36 63.47238 -14.24197 37165 ft 507 kts 141°
2026-05-04 17:36 63.41927 -14.13770 37164 ft 507 kts 141°
2026-05-04 17:37 63.36600 -14.03444 37167 ft 507 kts 142°
2026-05-04 17:37 63.31230 -13.93330 37142 ft 506 kts 143°
2026-05-04 17:38 63.25826 -13.83258 37155 ft 506 kts 143°
2026-05-04 17:38 63.20426 -13.73196 37199 ft 506 kts 143°
2026-05-04 17:39 63.12344 -13.58165 37179 ft 506 kts 143°
2026-05-04 17:39 63.06940 -13.48177 37144 ft 506 kts 143°
2026-05-04 17:40 63.01561 -13.38309 37152 ft 506 kts 143°
2026-05-04 17:40 62.96134 -13.28412 37163 ft 506 kts 143°
2026-05-04 17:41 62.90733 -13.18596 37156 ft 505 kts 143°
2026-05-04 17:41 62.85306 -13.08763 37164 ft 505 kts 143°
2026-05-04 17:42 62.80790 -13.00601 37127 ft 505 kts 144°
2026-05-04 17:42 62.75331 -12.90844 37133 ft 505 kts 144°
2026-05-04 17:43 62.69900 -12.81170 37135 ft 506 kts 144°
2026-05-04 17:43 62.64447 -12.71480 37144 ft 506 kts 144°
2026-05-04 17:44 62.58978 -12.61804 37186 ft 506 kts 144°
2026-05-04 17:44 62.53505 -12.52178 37138 ft 505 kts 144°
2026-05-04 17:45 62.48075 -12.42658 37145 ft 505 kts 144°
2026-05-04 17:45 62.42600 -12.33113 37148 ft 504 kts 144°
2026-05-04 17:46 62.37121 -12.23637 37149 ft 504 kts 144°
2026-05-04 17:46 62.31676 -12.14267 37143 ft 504 kts 144°
2026-05-04 17:47 62.26189 -12.04848 37119 ft 503 kts 144°
2026-05-04 17:47 62.20730 -11.95512 37128 ft 503 kts 144°
2026-05-04 17:48 62.15253 -11.86196 37136 ft 502 kts 145°
2026-05-04 17:48 62.09780 -11.76932 37134 ft 501 kts 145°
2026-05-04 17:49 62.04326 -11.67764 37132 ft 501 kts 145°
2026-05-04 17:49 61.98838 -11.58579 37114 ft 500 kts 145°
2026-05-04 17:50 61.93365 -11.49448 37142 ft 499 kts 145°
2026-05-04 17:50 61.87899 -11.40362 37133 ft 499 kts 146°
2026-05-04 17:51 61.82428 -11.31334 37124 ft 498 kts 146°
2026-05-04 17:51 61.76984 -11.22385 37121 ft 498 kts 146°
2026-05-04 17:52 61.71498 -11.13402 37104 ft 497 kts 146°
2026-05-04 17:52 61.66041 -11.04511 37110 ft 497 kts 146°
2026-05-04 17:53 61.60562 -10.95599 37115 ft 497 kts 146°
2026-05-04 17:53 61.55117 -10.86790 37117 ft 496 kts 146°
2026-05-04 17:54 61.49618 -10.77957 37089 ft 496 kts 146°
2026-05-04 17:54 61.44127 -10.69187 37091 ft 496 kts 146°
2026-05-04 17:55 61.38673 -10.60493 37109 ft 495 kts 146°
2026-05-04 17:55 61.33178 -10.51785 37147 ft 495 kts 147°
2026-05-04 17:56 61.27682 -10.43137 37131 ft 495 kts 147°
2026-05-04 17:56 61.22179 -10.34490 37123 ft 495 kts 147°
2026-05-04 17:57 61.16700 -10.25889 37113 ft 495 kts 147°
2026-05-04 17:57 61.11176 -10.17293 37112 ft 495 kts 147°
2026-05-04 17:58 61.05657 -10.08750 37109 ft 496 kts 147°
2026-05-04 17:58 61.00125 -10.00216 37109 ft 496 kts 147°
2026-05-04 17:59 60.94611 -9.91794 37071 ft 495 kts 147°
2026-05-04 18:00 60.86256 -9.79266 37098 ft 494 kts 148°
2026-05-04 18:00 60.80725 -9.71005 37100 ft 494 kts 148°
2026-05-04 18:01 60.75173 -9.62707 37091 ft 494 kts 148°
2026-05-04 18:01 60.69613 -9.54435 37051 ft 493 kts 148°
2026-05-04 18:02 60.61250 -9.42229 37071 ft 490 kts 152°
2026-05-04 18:02 60.55252 -9.36105 37080 ft 484 kts 160°
2026-05-04 18:03 60.49130 -9.30417 37070 ft 483 kts 160°
2026-05-04 18:03 60.42995 -9.24735 37028 ft 483 kts 160°
2026-05-04 18:04 60.36884 -9.19087 37054 ft 482 kts 160°
2026-05-04 18:05 60.27748 -9.10675 37063 ft 482 kts 160°
2026-05-04 18:05 60.21635 -9.05086 37060 ft 481 kts 161°
2026-05-04 18:06 60.12511 -8.96799 37021 ft 480 kts 160°
2026-05-04 18:06 60.06420 -8.91281 37040 ft 480 kts 160°
2026-05-04 18:07 60.00315 -8.85785 37050 ft 479 kts 161°
2026-05-04 18:07 59.94265 -8.80342 37043 ft 479 kts 161°
2026-05-04 18:08 59.88173 -8.74905 37013 ft 478 kts 161°
2026-05-04 18:08 59.82091 -8.69478 37032 ft 478 kts 161°
2026-05-04 18:09 59.69970 -8.58737 37042 ft 477 kts 161°
2026-05-04 18:10 59.63892 -8.53380 37042 ft 477 kts 161°
2026-05-04 18:10 59.57838 -8.48100 37032 ft 477 kts 161°
2026-05-04 18:11 59.51765 -8.42792 37045 ft 476 kts 161°
2026-05-04 18:11 59.45737 -8.37547 37046 ft 475 kts 161°
2026-05-04 18:12 59.39691 -8.32310 37045 ft 475 kts 161°
2026-05-04 18:12 59.33641 -8.27097 37000 ft 474 kts 161°
2026-05-04 18:13 59.27597 -8.21905 37031 ft 473 kts 161°
2026-05-04 18:14 59.18555 -8.14155 37041 ft 473 kts 161°
2026-05-04 18:14 59.12547 -8.09054 37042 ft 472 kts 161°
2026-05-04 18:15 59.00480 -7.98815 37029 ft 471 kts 161°
2026-05-04 18:16 58.94506 -7.93786 37037 ft 471 kts 161°
2026-05-04 18:16 58.88473 -7.88742 37043 ft 471 kts 161°
2026-05-04 18:17 58.79445 -7.81213 37025 ft 470 kts 161°
2026-05-04 18:18 58.70453 -7.73745 37032 ft 469 kts 161°
2026-05-04 18:18 58.64471 -7.68815 37037 ft 469 kts 161°
2026-05-04 18:19 58.55462 -7.61413 37038 ft 468 kts 161°
2026-05-04 18:19 58.49491 -7.56521 37038 ft 468 kts 161°
2026-05-04 18:20 58.43482 -7.51620 37038 ft 468 kts 161°
2026-05-04 18:20 58.37471 -7.46733 37037 ft 468 kts 161°
2026-05-04 18:21 58.31500 -7.41924 37054 ft 468 kts 161°
2026-05-04 18:21 58.25507 -7.37098 37015 ft 468 kts 161°
2026-05-04 18:22 58.19508 -7.32280 37029 ft 468 kts 161°
2026-05-04 18:22 58.13495 -7.27462 37042 ft 468 kts 161°
2026-05-04 18:23 58.08508 -7.23483 37045 ft 468 kts 162°
2026-05-04 18:23 58.01510 -7.17935 37052 ft 468 kts 162°
2026-05-04 18:24 57.96516 -7.13980 37034 ft 467 kts 161°
2026-05-04 18:24 57.90501 -7.09232 37048 ft 467 kts 162°
2026-05-04 18:25 57.84540 -7.04549 37039 ft 466 kts 162°
2026-05-04 18:25 57.78548 -6.99856 37048 ft 466 kts 162°
2026-05-04 18:26 57.72552 -6.95177 37013 ft 466 kts 162°
2026-05-04 18:26 57.66605 -6.90551 37032 ft 465 kts 162°
2026-05-04 18:27 57.60601 -6.85892 37049 ft 465 kts 162°
2026-05-04 18:27 57.54647 -6.81302 37055 ft 465 kts 162°
2026-05-04 18:28 57.48663 -6.76703 37057 ft 465 kts 162°
2026-05-04 18:28 57.42678 -6.72112 37053 ft 465 kts 162°
2026-05-04 18:29 57.36690 -6.67536 37058 ft 465 kts 162°
2026-05-04 18:29 57.30714 -6.62981 37055 ft 464 kts 162°
2026-05-04 18:30 57.21770 -6.56212 37056 ft 464 kts 162°
2026-05-04 18:31 57.15795 -6.51711 37045 ft 463 kts 162°
2026-05-04 18:31 57.09855 -6.47242 37063 ft 463 kts 162°
2026-05-04 18:32 57.03893 -6.42769 37066 ft 462 kts 162°
2026-05-04 18:32 56.97920 -6.38314 37069 ft 462 kts 162°
2026-05-04 18:33 56.91968 -6.33888 37049 ft 461 kts 162°
2026-05-04 18:33 56.86056 -6.29500 37062 ft 460 kts 162°
2026-05-04 18:34 56.80115 -6.25107 37066 ft 460 kts 162°
2026-05-04 18:34 56.74165 -6.20723 37070 ft 460 kts 162°
2026-05-04 18:35 56.68249 -6.16387 37048 ft 460 kts 162°
2026-05-04 18:35 56.62311 -6.12045 37072 ft 459 kts 162°
2026-05-04 18:36 56.56366 -6.07712 37088 ft 459 kts 162°
2026-05-04 18:36 56.50469 -6.03431 37074 ft 459 kts 162°
2026-05-04 18:37 56.44553 -5.99144 37075 ft 458 kts 162°
2026-05-04 18:37 56.41579 -5.97000 36229 ft 464 kts 162°
2026-05-04 18:37 56.38547 -5.94818 35068 ft 473 kts 162°
2026-05-04 18:37 56.35477 -5.92606 34214 ft 475 kts 162°
2026-05-04 18:38 56.32419 -5.90401 33537 ft 471 kts 162°
2026-05-04 18:38 56.29402 -5.88184 32965 ft 466 kts 159°
2026-05-04 18:38 56.26568 -5.85287 32376 ft 467 kts 148°
2026-05-04 18:38 56.24117 -5.81559 31821 ft 467 kts 136°
2026-05-04 18:39 56.22072 -5.77035 31254 ft 466 kts 125°
2026-05-04 18:39 56.20522 -5.71922 30707 ft 464 kts 115°
2026-05-04 18:39 56.19192 -5.66639 30144 ft 461 kts 116°
2026-05-04 18:39 56.17863 -5.61415 29546 ft 457 kts 116°
2026-05-04 18:40 56.16555 -5.56322 29031 ft 451 kts 116°
2026-05-04 18:40 56.15240 -5.51237 28520 ft 447 kts 116°
2026-05-04 18:40 56.13931 -5.46199 27988 ft 442 kts 116°
2026-05-04 18:40 56.12635 -5.41221 27516 ft 438 kts 116°
2026-05-04 18:41 56.11355 -5.36301 27033 ft 434 kts 116°
2026-05-04 18:41 56.10086 -5.31419 26562 ft 430 kts 116°
2026-05-04 18:41 56.08842 -5.26635 26092 ft 426 kts 117°
2026-05-04 18:41 56.07594 -5.21846 25623 ft 423 kts 117°
2026-05-04 18:42 56.06346 -5.17070 25143 ft 421 kts 117°
2026-05-04 18:42 56.05107 -5.12343 24680 ft 418 kts 117°
2026-05-04 18:42 56.03866 -5.07625 24214 ft 416 kts 117°
2026-05-04 18:42 56.02650 -5.03011 23736 ft 414 kts 117°
2026-05-04 18:43 56.01422 -4.98355 23200 ft 413 kts 117°
2026-05-04 18:43 56.00201 -4.93729 22714 ft 410 kts 117°
2026-05-04 18:43 55.98985 -4.89134 22233 ft 407 kts 117°
2026-05-04 18:43 55.97913 -4.84468 21748 ft 405 kts 107°
2026-05-04 18:44 55.97387 -4.79537 21275 ft 403 kts 94°
2026-05-04 18:44 55.97361 -4.76237 20970 ft 401 kts 85°
2026-05-04 18:44 55.98065 -4.69753 20339 ft 395 kts 70°
2026-05-04 18:44 55.98903 -4.65168 19884 ft 393 kts 70°
2026-05-04 18:45 55.99747 -4.60526 19423 ft 391 kts 70°
2026-05-04 18:45 56.00579 -4.55921 18970 ft 389 kts 70°
2026-05-04 18:45 56.01404 -4.51331 18523 ft 387 kts 70°
2026-05-04 18:45 56.02226 -4.46749 18037 ft 385 kts 70°
2026-05-04 18:46 56.03038 -4.42195 17588 ft 382 kts 70°
2026-05-04 18:46 56.03840 -4.37698 17151 ft 378 kts 70°
2026-05-04 18:46 56.04629 -4.33259 16726 ft 376 kts 70°
2026-05-04 18:46 56.05415 -4.28812 16295 ft 373 kts 70°
2026-05-04 18:47 56.06198 -4.24403 15873 ft 370 kts 70°
2026-05-04 18:47 56.06969 -4.20064 15454 ft 368 kts 70°
2026-05-04 18:47 56.07742 -4.15703 15039 ft 365 kts 70°
2026-05-04 18:47 56.08510 -4.11369 14629 ft 363 kts 70°
2026-05-04 18:48 56.09269 -4.07076 14201 ft 361 kts 70°
2026-05-04 18:48 56.10020 -4.02792 13780 ft 358 kts 70°
2026-05-04 18:48 56.10761 -3.98546 13337 ft 355 kts 70°
2026-05-04 18:48 56.11484 -3.94381 12926 ft 352 kts 71°
2026-05-04 18:49 56.12208 -3.90205 12513 ft 349 kts 71°
2026-05-04 18:49 56.12910 -3.86069 12092 ft 346 kts 74°
2026-05-04 18:49 56.13157 -3.81783 11736 ft 342 kts 88°
2026-05-04 18:49 56.13167 -3.77536 11408 ft 337 kts 89°
2026-05-04 18:50 56.13159 -3.73363 11081 ft 333 kts 89°
2026-05-04 18:50 56.13148 -3.69282 10763 ft 328 kts 89°
2026-05-04 18:50 56.13137 -3.65207 10444 ft 324 kts 89°
2026-05-04 18:50 56.13128 -3.61196 10123 ft 320 kts 89°
2026-05-04 18:51 56.13118 -3.57224 9794 ft 316 kts 89°
2026-05-04 18:51 56.13107 -3.53366 9449 ft 312 kts 89°
2026-05-04 18:51 56.13093 -3.49500 9103 ft 308 kts 89°
2026-05-04 18:51 56.13076 -3.45673 8761 ft 304 kts 89°
2026-05-04 18:52 56.13053 -3.41900 8388 ft 298 kts 89°
2026-05-04 18:52 56.13030 -3.38272 8010 ft 284 kts 89°
2026-05-04 18:52 56.13008 -3.34801 7633 ft 272 kts 89°
2026-05-04 18:52 56.12987 -3.31492 7329 ft 259 kts 89°
2026-05-04 18:53 56.12962 -3.28342 7028 ft 246 kts 89°
2026-05-04 18:53 56.12934 -3.25342 6730 ft 235 kts 89°
2026-05-04 18:53 56.12903 -3.22518 6441 ft 224 kts 90°
2026-05-04 18:53 56.12870 -3.19772 6127 ft 216 kts 90°
2026-05-04 18:54 56.12834 -3.17108 5804 ft 211 kts 90°
2026-05-04 18:54 56.12788 -3.14516 5487 ft 206 kts 92°
2026-05-04 18:54 56.12408 -3.12071 5303 ft 205 kts 122°
2026-05-04 18:54 56.11403 -3.10285 5084 ft 205 kts 153°
2026-05-04 18:55 56.10145 -3.09157 4823 ft 204 kts 155°
2026-05-04 18:55 56.07503 -3.07406 4068 ft 207 kts 180°
2026-05-04 18:55 56.06111 -3.07708 3824 ft 197 kts 202°
2026-05-04 18:56 56.04931 -3.08772 3620 ft 184 kts 221°
2026-05-04 18:56 56.04066 -3.10348 3412 ft 173 kts 239°
2026-05-04 18:56 56.03451 -3.12142 3198 ft 166 kts 244°
2026-05-04 18:56 56.02864 -3.13894 2977 ft 162 kts 243°
2026-05-04 18:57 56.02298 -3.15582 2761 ft 159 kts 243°
2026-05-04 18:57 56.01733 -3.17267 2547 ft 157 kts 243°
2026-05-04 18:57 56.01177 -3.18921 2331 ft 153 kts 243°
2026-05-04 18:57 56.00630 -3.20551 2123 ft 153 kts 244°
2026-05-04 18:58 56.00085 -3.22168 1934 ft 146 kts 244°
2026-05-04 18:58 55.99582 -3.23660 1738 ft 135 kts 244°
2026-05-04 18:58 55.99110 -3.25062 1544 ft 131 kts 244°
2026-05-04 18:58 55.98641 -3.26457 1364 ft 130 kts 243°
2026-05-04 18:59 55.98176 -3.27838 1182 ft 131 kts 244°
2026-05-04 18:59 55.97713 -3.29210 1004 ft 130 kts 241°
2026-05-04 18:59 55.97244 -3.30603 822 ft 131 kts 242°
2026-05-04 18:59 55.96773 -3.31987 625 ft 131 kts 241°
2026-05-04 19:00 55.96311 -3.33366 449 ft 130 kts 242°
2026-05-04 19:00 55.95835 -3.34754 281 ft 130 kts 243°
2026-05-04 19:00 55.95384 -3.36106 125 ft 125 kts 243°
2026-05-04 19:00 55.95024 -3.37186 112 ft 63 kts 239°
2026-05-04 19:01 55.94851 -3.37688 114 ft 35 kts 239°
2026-05-04 19:01 55.94739 -3.38016 114 ft 27 kts 237°
2026-05-04 19:01 55.94671 -3.38056 115 ft 15 kts 151°
2026-05-04 19:01 55.94598 -3.37955 114 ft 12 kts 133°
2026-05-04 19:02 55.94629 -3.37781 115 ft 25 kts 56°
2026-05-04 19:02 55.94715 -3.37519 114 ft 21 kts 59°
2026-05-04 19:02 55.94788 -3.37303 116 ft 20 kts 58°
2026-05-04 19:02 55.94856 -3.37104 116 ft 18 kts 60°
2026-05-04 19:03 55.94917 -3.36920 114 ft 16 kts 58°
2026-05-04 19:03 55.94898 -3.36765 116 ft 12 kts 90°
2026-05-04 19:03 55.94932 -3.36639 115 ft 11 kts 58°
2026-05-04 19:03 55.94960 -3.36550 116 ft 2 kts 80°
2026-05-04 19:04 55.94955 -3.36545 116 ft 1 kts 135°
2026-05-04 19:04 55.94929 -3.36521 115 ft 4 kts 149°
2026-05-04 19:04 55.94907 -3.36498 113 ft 3 kts 149°
2026-05-04 19:04 55.94906 -3.36496 114 ft 0 kts 149°